User: anonymous   Login
Location: Caltech
(34.1382°N, 118.1253°W)
Time: 03:19:50
(UTC-07:00)
Language:

Cosmos 1508 Rocket - Orbit

View from above orbital plane
View from above orbital plane
View from above satellite
View from above satellite

Ground track
Ground track

The orbit data is extracted from the following two-line orbital elements,

1 14484U 83111B   15142.80992006  .00157099  67350-5  58779-3 0  9998
2 14484 082.8188 351.6098 0083655 105.3066 316.9863 15.82271401625143
Epoch (UTC): 22 May 2015 19:26:17
Eccentricity: 0.0083655
inclination: 82.8188°
perigee height: 268 km
apogee height: 380 km
right ascension of ascending node: 351.6098°
argument of perigee: 105.3066°
revolutions per day: 15.82271401
mean anomaly at epoch: 316.9863°
orbit number at epoch: 62514

The dashed part of the orbit path shows where the satellite is in the earth's shadow,  

DLR